Regional Weather Roundup
Issued by NWS Albany, NY

Home | Current Version | Previous Version | Text Only | Print | Product List | Glossary On
Versions: 1 2 3 4 5 6 7 8 9 10 11 12 13 14 15 16 17 18 19 20 21 22 23 24 25 26 27 28 29 30 31 32 33 34 35 36 37 38 39 40 41 42 43 44 45 46 47 48 49 50
000
ASUS41 KALY 300910
RWRALY

NEW YORK STATE HOURLY WEATHER ROUNDUP
NATIONAL WEATHER SERVICE ALBANY NY
500 AM EDT WED JUL 30 2014

NOTE: "FAIR" INDICATES FEW OR NO CLOUDS BELOW 12,000 FEET WITH NO
SIGNIFICANT WEATHER AND/OR NO OBSTRUCTIONS TO VISIBILITY.

NYZ032-033-038>043-046>054-057>066-NYZ062>081-301000-
EAST


CITY           SKY/WX    TMP DP  RH WIND       PRES   REMARKS
ALBANY         CLOUDY    61  53  75 CALM      29.99R
GLENS FALLS    CLOUDY    59  55  87 N5        29.99R
POUGHKEEPSIE   CLOUDY    61  58  90 CALM      29.98R
NEWBURGH       CLOUDY    59  57  94 W7        30.00
MONTGOMERY     CLOUDY    58  55  90 SW3       29.99R
WHITE PLAINS   CLEAR     57  53  86 N3        29.98R
ISLIP          PTCLDY    63  54  72 CALM      29.96R
NEW YORK CITY  MOCLDY    67  55  65 NW9       29.97R
CENTRAL PARK   CLEAR     64  53  67 VRB5      30.01R
$$

NYZ005>009-017-018-044>046-055-056-301000-
CENTRAL


CITY           SKY/WX    TMP DP  RH WIND       PRES   REMARKS
FULTON         CLEAR     50  48  93 CALM      29.98R
SYRACUSE       PTCLDY    53  50  89 SE5       29.98R
ROME           CLEAR     49  48  97 CALM      30.02R
ELMIRA         FOG       50  50 100 CALM      30.01S VSB 1/4
BINGHAMTON     CLEAR     53  51  93 CALM      30.01S
MONTICELLO     PTCLDY    52  52 100 W3        30.02S
$$

NYZ026>034-041>043-301000-
NORTH


CITY           SKY/WX    TMP DP  RH WIND       PRES   REMARKS
WATERTOWN      CLOUDY    58  49  72 S5        29.96R
FORT DRUM      NOT AVBL
MASSENA        CLEAR     54  51  90 S3        29.97R
SARANAC LAKE   CLOUDY    38  37  97 CALM      30.00R FOG
PLATTSBURGH    CLEAR     51  50  96 SW5       29.99R
$$

NYZ001>004-010>016-019>021-301000-
WEST


CITY           SKY/WX    TMP DP  RH WIND       PRES   REMARKS
NIAGARA FALLS  MOCLDY    60  57  89 SW7       29.94R
BUFFALO        LGT RAIN  59  54  83 S12       29.95S
DUNKIRK        LGT RAIN  58  54  86 S10G22    29.96S
JAMESTOWN      MOCLDY    54  52  94 S5        30.00S
WELLSVILLE     MOCLDY    52  47  83 SW7       30.03R
ROCHESTER      CLOUDY    59  53  80 SW8       29.96S
PENN YAN       MOCLDY    56  53  90 S6        30.00R
$$

             KEY
       WCI = WIND CHILL INDEX
       VSB = VISIBILITY
       HX  = HEAT INDEX
$$



USA.gov is the U.S. government's official web portal to all federal, state and local government web resources and services.